Location: Ravensburg
(48.5621°N, 13.4088°E)
Time: 17:16:01
(UTC+01:00)

Tiangong 2 - Visible Passes

Search period start: 19 February 2018 00:00
Search period end: 01 March 2018 00:00
Orbit: 384 x 388 km, 42.8° (Epoch: 19 February)

Date Brightness Start Highest point End Pass type
(mag) Time Alt. Az. Time Alt. Az. Time Alt. Az.
19 Feb 3.2 19:12:53 10° WSW 19:15:15 19° SSW 19:16:18 17° S visible
20 Feb 3.0 18:13:51 10° WSW 18:16:29 24° SSW 18:19:07 10° SE visible
21 Feb 3.8 18:52:03 10° WSW 18:53:52 14° SSW 18:55:42 10° SSE visible
